EW3814 Weather Reports


Display with metric or nautical units.
time (UTC)temp
F
wind
direction
speed
MPH
gust
MPH
rain 1hr
in
rain 24hr
in
rain mn
in
humidity
%
barometer
mb
20260504193751 78 338 0.0 0.0 0.00 0.00 0.00 33 1016.8
20260504193252 78 171 0.0 0.0 0.00 0.00 0.00 37 1017.0
20260504192752 80 252 0.0 0.0 0.00 0.00 0.00 35 1017.0
20260504191752 78 279 0.0 0.0 0.00 0.00 0.00 38 1017.2
20260504191252 77 220 0.0 0.0 0.00 0.00 0.00 36 1017.2
20260504190749 78 338 0.0 0.0 0.00 0.00 0.00 35 1017.3
20260504185750 78 196 0.0 0.0 0.00 0.00 0.00 40 1017.4
20260504185249 78 285 0.0 0.0 0.00 0.00 0.00 35 1017.4
20260504184854 77 358 0.0 0.0 0.00 0.00 0.00 36 1017.5
20260504184353 78 45 0.0 0.0 0.00 0.00 0.00 35 1017.5
20260504183851 78 46 0.0 0.0 0.00 0.00 0.00 36 1017.6
20260504183349 77 36 0.0 0.0 0.00 0.00 0.00 38 1017.6
20260504182345 76 7 0.0 0.0 0.00 0.00 0.00 37 1017.8
20260504181343 78 348 0.0 0.0 0.00 0.00 0.00 37 1017.8
20260504180840 77 348 0.0 0.0 0.00 0.00 0.00 37 1017.8
20260504180341 77 348 0.0 0.0 0.00 0.00 0.00 39 1017.8
20260504175839 76 353 0.0 0.0 0.00 0.00 0.00 41 1017.8
20260504175337 76 59 0.0 0.0 0.00 0.00 0.00 38 1017.8
20260504174834 76 64 0.0 0.0 0.00 0.00 0.00 43 1017.9
20260504173832 76 356 0.0 0.0 0.00 0.00 0.00 37 1017.9
20260504172830 76 13 0.0 0.0 0.00 0.00 0.00 38 1018.0
20260504172327 74 12 0.0 0.0 0.00 0.00 0.00 39 1018.1
20260504171826 74 2 0.0 0.0 0.00 0.00 0.00 36 1018.3
20260504171325 74 20 0.0 0.0 0.00 0.00 0.00 36 1018.4
20260504170822 74 29 0.0 0.0 0.00 0.00 0.00 38 1018.6
20260504170322 74 15 0.0 0.0 0.00 0.00 0.00 38 1018.6
20260504150747 66 23 0.0 0.0 0.00 0.00 0.00 46 1019.9
20260504150246 66 11 0.0 0.0 0.00 0.00 0.00 47 1019.9
20260504140739 61 252 0.0 0.0 0.00 0.00 0.00 64 1019.8
20260504140239 61 252 0.0 0.0 0.00 0.00 0.00 67 1019.8
20260504130229 47 251 0.0 0.0 0.00 0.00 0.00 94 1019.7
20260504120226 43 251 0.0 0.0 0.00 0.00 0.00 92 1019.4
20260504100221 43 251 0.0 0.0 0.00 0.00 0.00 89 1019.2
20260504081718 46 251 0.0 0.0 0.00 0.00 0.00 85 1019.1
20260504081218 46 251 0.0 0.0 0.00 0.00 0.00 85 1019.0
20260504080717 46 251 0.0 0.0 0.00 0.00 0.00 84 1018.9
20260504080218 46 251 0.0 0.0 0.00 0.00 0.00 84 1019.0
20260504070213 48 251 0.0 0.0 0.00 0.00 0.00 82 1019.1
20260504060213 49 251 0.0 0.0 0.00 0.00 0.00 78 1019.1
20260504050711 49 251 0.0 0.0 0.00 0.00 0.00 75 1019.3
20260504050210 49 251 0.0 0.0 0.00 0.00 0.00 75 1019.2
20260504045710 49 251 0.0 0.0 0.00 0.00 0.00 75 1019.2
20260504044709 49 251 0.0 0.0 0.00 0.00 0.00 74 1019.0
20260504044209 49 251 0.0 0.0 0.00 0.00 0.00 74 1019.0
20260504043710 50 251 0.0 0.0 0.00 0.00 0.00 74 1019.2
20260504042708 50 251 0.0 0.0 0.00 0.00 0.00 73 1019.1
20260504042208 50 251 0.0 0.0 0.00 0.00 0.00 73 1019.1
20260504041705 50 251 0.0 0.0 0.00 0.00 0.00 73 1019.1
20260504041205 50 251 0.0 0.0 0.00 0.00 0.00 73 1019.2
20260504040704 50 251 0.0 0.0 0.00 0.00 0.00 73 1019.3
20260504040203 50 251 0.0 0.0 0.00 0.00 0.00 72 1019.3
20260504035704 50 251 0.0 0.0 0.00 0.00 0.00 72 1019.4
20260504035203 51 251 0.0 0.0 0.00 0.00 0.00 72 1019.4
20260504034705 51 251 0.0 0.0 0.00 0.00 0.00 71 1019.4
20260504034204 51 251 0.0 0.0 0.00 0.00 0.00 71 1019.4
20260504033704 51 251 0.0 0.0 0.00 0.00 0.00 71 1019.4
20260504032704 51 251 0.0 0.0 0.00 0.00 0.00 71 1019.4
20260504032204 51 251 0.0 0.0 0.00 0.00 0.00 71 1019.4
20260504031701 51 251 0.0 0.0 0.00 0.00 0.00 70 1019.5
20260504031201 51 251 0.0 0.0 0.00 0.00 0.00 69 1019.5
20260504030704 52 251 0.0 0.0 0.00 0.00 0.00 69 1019.5
20260504030201 52 251 0.0 0.0 0.00 0.00 0.00 68 1019.5
20260504025701 52 251 0.0 0.0 0.00 0.00 0.00 67 1019.4
20260504025201 52 251 0.0 0.0 0.00 0.00 0.00 65 1019.4
20260504024202 53 251 0.0 0.0 0.00 0.00 0.00 64 1019.4
20260504023701 53 251 0.0 0.0 0.00 0.00 0.00 65 1019.4
20260504023200 53 251 0.0 0.0 0.00 0.00 0.00 64 1019.3
20260504022700 53 251 0.0 0.0 0.00 0.00 0.00 65 1019.3
20260504022158 53 251 0.0 0.0 0.00 0.00 0.00 65 1019.2
20260504021701 53 251 0.0 0.0 0.00 0.00 0.00 63 1019.1
20260504021158 53 251 0.0 0.0 0.00 0.00 0.00 63 1019.0
20260504020659 54 251 0.0 0.0 0.00 0.00 0.00 62 1019.0
20260504015159 54 251 0.0 0.0 0.00 0.00 0.00 61 1018.7
20260504014804 55 251 0.0 0.0 0.00 0.00 0.00 60 1018.6
20260504014303 55 251 0.0 0.0 0.00 0.00 0.00 60 1018.6
20260504013657 55 251 0.0 0.0 0.00 0.00 0.00 59 1018.6
20260504013301 55 251 0.0 0.0 0.00 0.00 0.00 59 1018.6
20260504012759 56 251 0.0 0.0 0.00 0.00 0.00 58 1018.5
20260504011756 57 251 0.0 0.0 0.00 0.00 0.00 57 1018.4
20260504011254 57 251 0.0 0.0 0.00 0.00 0.00 55 1018.4
20260504010752 58 251 0.0 0.0 0.00 0.00 0.00 54 1018.3
20260504010253 58 251 0.0 0.0 0.00 0.00 0.00 54 1018.3
20260504005749 58 251 0.0 0.0 0.00 0.00 0.00 54 1018.3
20260504005248 58 251 0.0 0.0 0.00 0.00 0.00 52 1018.2
20260504004745 59 251 0.0 0.0 0.00 0.00 0.00 52 1018.1
20260504003743 59 251 0.0 0.0 0.00 0.00 0.00 53 1018.2
20260504003242 60 251 0.0 0.0 0.00 0.00 0.00 51 1018.2
20260504002739 60 251 0.0 0.0 0.00 0.00 0.00 51 1018.1
20260504002239 61 251 0.0 0.0 0.00 0.00 0.00 51 1018.1
20260504001736 61 251 0.0 0.0 0.00 0.00 0.00 51 1018.0
20260504001235 61 251 0.0 0.0 0.00 0.00 0.00 50 1018.0
20260504000732 62 251 0.0 0.0 0.00 0.00 0.00 51 1017.9
20260504000234 62 25 0.0 0.0 0.00 0.00 0.00 50 1017.8
20260503235730 62 25 0.0 0.0 0.00 0.00 0.00 49 1017.8
20260503235230 63 25 0.0 0.0 0.00 0.00 0.00 48 1017.9
20260503234727 63 25 0.0 0.0 0.00 0.00 0.00 48 1017.9
20260503234225 63 25 0.0 0.0 0.00 0.00 0.00 48 1017.9
20260503233725 64 25 0.0 0.0 0.00 0.00 0.00 48 1017.9
20260503233223 64 25 0.0 0.0 0.00 0.00 0.00 48 1017.8
20260503232723 64 25 0.0 0.0 0.00 0.00 0.00 51 1017.8
20260503231719 65 25 0.0 0.0 0.00 0.00 0.00 49 1017.9
20260503231216 65 25 0.0 0.0 0.00 0.00 0.00 49 1017.9
20260503230716 65 25 0.0 0.0 0.00 0.00 0.00 45 1017.8
20260503230215 65 25 0.0 0.0 0.00 0.00 0.00 44 1017.8
20260503225711 65 25 0.0 0.0 0.00 0.00 0.00 47 1017.9
20260503225209 65 25 0.0 0.0 0.00 0.00 0.00 43 1017.9
20260503224708 65 25 0.0 0.0 0.00 0.00 0.00 41 1017.9
20260503224206 66 25 0.0 0.0 0.00 0.00 0.00 42 1018.0
20260503223704 66 25 0.0 0.0 0.00 0.00 0.00 39 1018.1
20260503222702 66 29 0.0 0.0 0.00 0.00 0.00 36 1018.2
20260503222202 66 9 0.0 0.0 0.00 0.00 0.00 35 1018.2
20260503221701 66 19 0.0 0.0 0.00 0.00 0.00 42 1018.1
20260503221158 66 17 0.0 0.0 0.00 0.00 0.00 36 1018.2
20260503220655 66 16 0.0 0.0 0.00 0.00 0.00 35 1018.2
20260503215654 66 53 0.0 0.0 0.00 0.00 0.00 37 1018.4
20260503215152 66 54 0.0 0.0 0.00 0.00 0.00 37 1018.4
20260503214147 66 11 0.0 0.0 0.00 0.00 0.00 35 1018.5
20260503213146 66 9 0.0 0.0 0.00 0.00 0.00 35 1018.6
20260503212645 67 96 0.0 0.0 0.00 0.00 0.00 35 1018.7
20260503212143 67 11 0.0 0.0 0.00 0.00 0.00 34 1018.7
20260503211643 66 359 0.0 0.0 0.00 0.00 0.00 34 1018.7
20260503210640 66 60 0.0 0.0 0.00 0.00 0.00 32 1018.9
20260503205640 68 292 0.0 0.0 0.00 0.00 0.00 34 1018.9
20260503205138 67 3 0.0 0.0 0.00 0.00 0.00 34 1019.0
20260503204637 67 348 0.0 0.0 0.00 0.00 0.00 33 1019.0
20260503204138 68 310 0.0 0.0 0.00 0.00 0.00 33 1019.0
20260503203638 68 348 0.0 0.0 0.00 0.00 0.00 33 1019.2
20260503203139 68 109 0.0 0.0 0.00 0.00 0.00 34 1019.2
20260503202639 68 338 0.0 0.0 0.00 0.00 0.00 34 1019.2
20260503202139 67 61 0.0 0.0 0.00 0.00 0.00 32 1019.4
20260503201639 67 0 0.0 0.0 0.00 0.00 0.00 30 1019.4
20260503201137 68 353 0.0 0.0 0.00 0.00 0.00 33 1019.5
20260503200638 68 23 0.0 0.0 0.00 0.00 0.00 31 1019.5
20260503200137 67 38 0.0 0.0 0.00 0.00 0.00 31 1019.5
20260503195636 67 1 0.0 0.0 0.00 0.00 0.00 34 1019.6
20260503195135 67 211 0.0 0.0 0.00 0.00 0.00 31 1019.7